Flag for Poland Weather past 2 weeks in Słupsk, Poland

Now
64 °F

Overcast.


Feels Like: 64 °F
Forecast: 56 / 66 °F
Wind: 3 mph from Southwest

Location: Leba

Current Time: Aug 22, 2014 at 5:48:22 PM

Latest Report: Aug 22, 2014 at 5:00 PM


Visibility: 13 mi

Pressure: 29.90 "Hg

Humidity: 58%

Dew point: 49 °F

Location of SłupskLocation

Historic Weather in Słupsk — Graph

°F

Słupsk temperature yesterday

Maximum temperature yesterday: 64 °F (at 4:00 PM)
Minimum temperature yesterday: 52 °F (at 6:00 AM)
Average temperature yesterday: 58 °F

Past Weeks' High & Low Weather Summary

 TemperatureHumidityPressure
High83 °F (Aug 9, 4:00 PM)97% (Aug 8, 7:00 AM)30.01 "Hg (Aug 8, 7:00 AM)
Low48 °F (Aug 22, 6:00 AM)36% (Aug 13, 2:00 PM)29.54 "Hg (Aug 18, 7:00 PM)
Average63 °F75%29.81 "Hg
* Reported Aug 7 4:00 PM — Aug 22 4:00 PM, Słupsk, Weather by CustomWeather, © 2014

Note: Actual official high and low records may vary slightly from our data, if they occured in-between our weather recording intervals... More about our weather records

Advertising

Słupsk weather history for previous 24 hours

 ConditionsComfort  
Time TempWeatherWind HumidityBarometerVisibility
4:00 PM
Aug 22
65 °FOvercast.6 mph54%29.91 "Hg12 mi
3:00 PM66 °FOvercast.3 mph54%29.91 "Hg12 mi
2:00 PM65 °FOvercast.7 mph56%29.92 "Hg12 mi
1:00 PM67 °FPartly sunny.7 mph52%29.93 "Hg12 mi
12:00 PM66 °FPassing clouds.25 mph52%29.93 "Hg11 mi
11:00 AM64 °FPartly sunny.8 mph55%29.94 "Hg12 mi
10:00 AM62 °FPartly sunny.6 mph65%29.95 "Hg12 mi
9:00 AM59 °FScattered clouds.5 mph68%29.95 "Hg12 mi
8:00 AM53 °FPassing clouds.26 mph81%29.95 "Hg11 mi
7:00 AM49 °FPartly sunny.3 mph85%29.95 "Hg12 mi
6:00 AM48 °FPartly sunny.1 mph87%29.95 "Hg12 mi
5:00 AM50 °FPassing clouds.5 mph85%29.95 "Hg12 mi
4:00 AM53 °FPassing clouds.5 mph85%29.95 "Hg12 mi
3:00 AM49 °FPassing clouds.3 mph90%29.95 "Hg12 mi
2:00 AM51 °FClear.2 mph87%29.96 "Hg12 mi
1:00 AM52 °FClear.2 mph85%29.96 "Hg12 mi
12:00 AM53 °FPassing clouds.5 mph83%29.96 "Hg12 mi
11:00 PM
Aug 21
54 °FPassing clouds.6 mph80%29.95 "Hg12 mi
10:00 PM57 °FPassing clouds.8 mph75%29.95 "Hg12 mi
9:00 PM57 °FPassing clouds.6 mph74%29.94 "Hg12 mi
8:00 PM59 °FPassing clouds.8 mph69%29.94 "Hg12 mi
7:00 PM61 °FPassing clouds.8 mph63%29.94 "Hg12 mi
6:00 PM62 °FPassing clouds.9 mph58%29.93 "Hg12 mi
5:00 PM63 °FScattered clouds.10 mph61%29.93 "Hg12 mi
Weather by CustomWeather, © 2014

See weather overviewHow to use our weather pages